Weather History for KBED - December, 2012

Change the Weather History Date:

Saturday, December 8, 2012

  Actual Average Record
Temperature  
Mean Temperature 41 °F -  
Max Temperature 43 °F 40 °F 62 °F (1980)
Min Temperature 39 °F 23 °F -7 °F (1964)
Degree Days  
Heating Degree Days 24    
Moisture  
Dew Point 40 °F    
Average Humidity 94    
Maximum Humidity 100    
Minimum Humidity 87    
Precipitation  
Precipitation 0.26 in - - ()
Sea Level Pressure  
Sea Level Pressure 29.95 in    
Wind  
Wind Speed 1 mph (NNE)    
Max Wind Speed 7 mph    
Max Gust Speed -    
Visibility 3 miles    
Events Rain    
Averages and records for this station are not official NWS values.
T = Trace of Precipitation, MM = Missing Value Source: NWS Daily Summary

Daily Weather History Graph

Daily Weather History Graph

Search for Another Location

Airport or City:

Trip Planner

Search our weather history database for the weather conditions in past years. The results will help you decide how hot, cold, wet, or windy it might be!

Date:

Astronomy

Dec. 08, 2012 Rise Set
Actual Time 7:02 AM EST 4:12 PM EST
Civil Twilight 6:30 AM EST 4:43 PM EST
Nautical Twilight 5:55 AM EST 5:19 PM EST
Astronomical Twilight 5:21 AM EST 5:53 PM EST
Moon 1:18 AM EST (12/8) 12:45 PM EST (12/8)
Length of Visible Light 10h 13m
Length of Day
9h 09m
Waning Crescent, 28% of the Moon is Illuminated
Dec 8
Waning Crescent
Dec 13
New
Dec 20
First Quarter
Dec 28
Full
Jan 4
Last Quarter

Hourly Weather History & Observations

Time (EST) Temp. Windchill Dew Point Humidity Pressure Visibility Wind Dir Wind Speed Gust Speed Precip Events Conditions
12:40 AM 41.0 °F - 39.2 °F 93% 30.02 in 7.0 mi Calm Calm - 0.00 in   Overcast
12:56 AM 41.0 °F - 39.0 °F 93% 30.06 in 5.0 mi Calm Calm - 0.00 in   Overcast
1:05 AM 41.0 °F - 39.2 °F 93% 30.02 in 5.0 mi Calm Calm - N/A   Overcast
1:40 AM 39.2 °F - 39.2 °F 100% 30.01 in 2.0 mi Calm Calm - N/A   Overcast
1:56 AM 39.9 °F - 39.0 °F 97% 30.06 in 2.5 mi Calm Calm - N/A   Overcast
2:04 AM 39.2 °F - 39.2 °F 100% 30.02 in 3.0 mi Calm Calm - N/A   Overcast
2:19 AM 39.2 °F - 39.2 °F 100% 30.02 in 2.5 mi Calm Calm - N/A   Overcast
2:30 AM 39.2 °F - 39.2 °F 100% 30.01 in 3.0 mi Calm Calm - N/A   Overcast
2:40 AM 39.2 °F - 39.2 °F 100% 30.01 in 2.5 mi Calm Calm - N/A   Overcast
2:56 AM 39.9 °F - 39.0 °F 97% 30.05 in 3.0 mi Calm Calm - N/A   Overcast
3:00 AM 39.2 °F - 39.2 °F 100% 30.01 in 2.5 mi Calm Calm - N/A   Overcast
3:56 AM 39.9 °F - 39.0 °F 97% 30.05 in 2.5 mi Calm Calm - 0.00 in Rain Light Rain
4:39 AM 39.2 °F - 39.2 °F 100% 29.99 in 1.5 mi Calm Calm - 0.03 in Rain Light Rain
4:56 AM 39.9 °F - 39.0 °F 97% 30.03 in 1.8 mi Calm Calm - 0.05 in Rain Light Rain
5:12 AM 39.2 °F - 39.2 °F 100% 29.98 in 2.0 mi Calm Calm - 0.00 in Rain Light Rain
5:56 AM 39.9 °F - 39.9 °F 100% 30.02 in 1.8 mi Calm Calm - 0.03 in Rain Light Rain
6:37 AM 41.0 °F 39.0 °F 39.2 °F 93% 29.98 in 1.5 mi ENE 3.5 mph - 0.04 in Rain Light Rain
6:52 AM 41.0 °F - 39.2 °F 93% 29.99 in 1.5 mi Calm Calm - 0.06 in Rain Light Rain
6:56 AM 41.0 °F - 39.9 °F 96% 30.03 in 1.5 mi Calm Calm - 0.06 in Rain Light Rain
7:04 AM 41.0 °F 39.0 °F 39.2 °F 93% 29.98 in 0.8 mi NNE 3.5 mph - 0.02 in Rain Rain
7:48 AM 42.8 °F 39.3 °F 39.2 °F 87% 29.97 in 1.5 mi NE 5.8 mph - 0.03 in Rain Light Rain
7:56 AM 42.1 °F 39.2 °F 39.9 °F 92% 30.01 in 1.5 mi NE 4.6 mph - 0.03 in Rain Light Rain
8:03 AM 42.8 °F 40.1 °F 39.2 °F 87% 29.97 in 3.0 mi NNE 4.6 mph - 0.00 in Rain Light Rain
8:11 AM 42.8 °F 39.3 °F 39.2 °F 87% 29.96 in 1.5 mi NE 5.8 mph - 0.00 in Rain Light Rain
8:53 AM 42.8 °F 40.1 °F 41.0 °F 93% 29.95 in 0.8 mi ENE 4.6 mph - 0.03 in Rain Rain
8:56 AM 42.1 °F 39.2 °F 41.0 °F 96% 29.99 in 0.8 mi ENE 4.6 mph - 0.03 in Rain Rain
9:06 AM 42.8 °F 39.3 °F 41.0 °F 93% 29.94 in 1.0 mi NE 5.8 mph - 0.00 in Rain Light Rain
9:56 AM 42.1 °F 39.2 °F 41.0 °F 96% 29.99 in 1.5 mi North 4.6 mph - 0.04 in Rain Light Rain
10:56 AM 43.0 °F 39.5 °F 41.0 °F 93% 29.96 in 1.5 mi NNE 5.8 mph - 0.01 in   Overcast
11:56 AM 42.1 °F 38.4 °F 39.9 °F 92% 29.93 in 1.5 mi North 5.8 mph - 0.01 in   Overcast
12:56 PM 41.0 °F 37.1 °F 39.0 °F 93% 29.91 in 1.5 mi North 5.8 mph - 0.00 in Rain Light Rain
1:52 PM 41.0 °F 39.0 °F 39.2 °F 93% 29.86 in 2.0 mi NNW 3.5 mph - 0.00 in   Overcast
1:56 PM 41.0 °F - 39.0 °F 93% 29.90 in 2.0 mi Calm Calm - 0.00 in   Overcast
2:03 PM 41.0 °F - 39.2 °F 93% 29.86 in 7.0 mi Calm Calm - N/A   Overcast
2:10 PM 41.0 °F 39.0 °F 39.2 °F 93% 29.86 in 2.0 mi NNW 3.5 mph - N/A   Overcast
2:53 PM 41.0 °F - 39.2 °F 93% 29.87 in 2.0 mi Calm Calm - N/A   Overcast
2:56 PM 41.0 °F - 39.0 °F 93% 29.91 in 2.0 mi Calm Calm - N/A   Overcast
3:03 PM 41.0 °F - 39.2 °F 93% 29.86 in 7.0 mi Calm Calm - N/A   Overcast
3:11 PM 41.0 °F - 39.2 °F 93% 29.87 in 2.0 mi Calm Calm - N/A   Mist
3:56 PM 41.0 °F - 39.9 °F 96% 29.93 in 2.0 mi Calm Calm - N/A   Mist
4:03 PM 41.0 °F - 39.2 °F 93% 29.88 in 7.0 mi Calm Calm - N/A   Overcast
4:56 PM 41.0 °F - 39.9 °F 96% 29.93 in 3.0 mi Calm Calm - N/A   Overcast
5:13 PM 41.0 °F - 39.2 °F 93% 29.88 in 2.5 mi Calm Calm - N/A   Overcast
5:40 PM 41.0 °F - 39.2 °F 93% 29.88 in 3.0 mi Calm Calm - N/A   Overcast
5:56 PM 41.0 °F - 39.9 °F 96% 29.94 in 3.0 mi Calm Calm - N/A   Overcast
6:15 PM 41.0 °F - 39.2 °F 93% 29.90 in 2.0 mi Calm Calm - N/A   Overcast
6:32 PM 41.0 °F - 39.2 °F 93% 29.89 in 1.5 mi Calm Calm - N/A   Overcast
6:56 PM 41.0 °F 39.0 °F 39.9 °F 96% 29.94 in 1.0 mi South 3.5 mph - N/A   Mist
7:20 PM 41.0 °F - 39.2 °F 93% 29.91 in 1.0 mi Calm Calm - N/A   Overcast
7:49 PM 41.0 °F - 39.2 °F 93% 29.91 in 1.0 mi Calm Calm - N/A   Overcast
7:56 PM 41.0 °F 39.0 °F 39.2 °F 93% 29.91 in 2.0 mi South 3.5 mph - N/A   Overcast
8:03 PM 41.0 °F - 39.2 °F 93% 29.91 in 4.0 mi Calm Calm - N/A   Overcast
8:19 PM 42.8 °F - 39.2 °F 87% 29.90 in 2.0 mi Calm Calm - N/A   Overcast
8:47 PM 42.8 °F - 39.2 °F 87% 29.91 in 2.0 mi Calm Calm - N/A   Overcast
8:56 PM 42.8 °F - 39.2 °F 87% 29.90 in 2.0 mi Calm Calm - N/A   Overcast
9:03 PM 42.8 °F - 41.0 °F 93% 29.90 in 5.0 mi Calm Calm - N/A   Overcast
9:56 PM 42.1 °F 40.2 °F 39.9 °F 92% 29.96 in 5.0 mi SW 3.5 mph - N/A   Mostly Cloudy
10:07 PM 42.8 °F - 41.0 °F 93% 29.92 in 5.0 mi Calm Calm - N/A   Scattered Clouds
10:56 PM 42.1 °F 37.7 °F 41.0 °F 96% 29.97 in 7.0 mi SW 6.9 mph - N/A   Partly Cloudy
11:56 PM 42.1 °F 39.2 °F 41.0 °F 96% 29.98 in 6.0 mi WSW 4.6 mph - N/A   Clear